GSAT-19

Last updated on Oct. 23, 2020, 5:56 a.m. UTC

1 42747U 17031A   20296.83531052  .00000110  00000-0  00000-0 0  9994
2 42747   0.0804  96.4717 0004725  45.7246 238.1156  1.00272035 12445
UTC
Height (km)
Latitude
Longitude
Inclination
Orbital Period
UTC large
Height (km)
Speed (km/s)
/
Latitude / Longitude
Inclination (degrees)
Orbital Period (minutes)
Azimuth
Elevation
Range (km)
Doppler Factor
iOS Compass Heading
iOS Angle

Next 30 passes for location: Hong Kong

Rise time Rise Azimuth (degrees) Set time Set Azimuth (degrees) Duration Max altitude (degrees)

No matching passes for this satellites